Home   Weather   Chania   Past weeks

Flag for Greece Past Weather in Chania, Crete, Greece — Yesterday and Last 2 Weeks

Now
55 °F

Partly cloudy.


Feels Like: 55 °F
Forecast: 55 / 65 °F
Wind: No wind

Location: Souda Airport

Current Time: Dec 5, 2016 at 2:40:38 am

Latest Report: Dec 5, 2016 at 1:50 am


Visibility: N/A

Pressure: 30.21 "Hg

Humidity: 94%

Dew Point: 54 °F

Location of ChaniaLocation

Past Weather in Chania — Graph

°F

Chania Temperature Yesterday

Maximum temperature yesterday: 64 °F (at 12:20 pm)
Minimum temperature yesterday: 54 °F (at 4:50 am)
Average temperature yesterday: 58 °F

High & Low Weather Summary for the Past Weeks

 TemperatureHumidityPressure
High73 °F (Nov 28, 12:20 pm)100% (Nov 22, 5:20 am)30.24 "Hg (Nov 22, 5:20 am)
Low45 °F (Dec 2, 5:50 am)48% (Dec 2, 1:50 pm)29.71 "Hg (Nov 29, 2:50 pm)
Average59 °F81%30.05 "Hg
* Reported Nov 20 12:20 am — Dec 5 12:50 am, Chania, Weather by CustomWeather, © 2016

Note: Actual official high and low records may vary slightly from our data, if they occured in-between our weather recording intervals... More about our weather records

Advertising

Chania Weather History for the Previous 24 Hours

Scroll right to see more
 ConditionsComfort  
Time TempWeatherWind HumidityBarometerVisibility
12:50 am
Mon, Dec 5
54 °FPartly cloudy.No wind100%30.21 "HgN/A
12:20 am54 °FPassing clouds.No wind100%30.21 "HgN/A
11:50 pm
Sun, Dec 4
55 °FPassing clouds.No wind94%30.21 "HgN/A
11:20 pm55 °FPassing clouds.No wind94%30.21 "HgN/A
10:50 pm55 °FPassing clouds.No wind94%30.21 "HgN/A
10:20 pm55 °FPartly cloudy.No wind88%30.21 "HgN/A
9:50 pm55 °FPassing clouds.No wind88%30.24 "HgN/A
9:20 pm55 °FPartly cloudy.5 mph94%30.24 "HgN/A
8:50 pm55 °FPartly cloudy.5 mph94%30.24 "HgN/A
8:20 pm55 °FPassing clouds.7 mph94%30.24 "HgN/A
7:50 pm55 °FPassing clouds.7 mph94%30.24 "HgN/A
7:20 pm57 °FThunderstorms. Passing clouds.9 mph88%30.21 "HgN/A
6:50 pm57 °FThunderstorms. Passing clouds.9 mph88%30.21 "HgN/A
6:20 pm57 °FThunderstorms. Passing clouds.No wind94%30.18 "HgN/A
5:50 pm57 °FPartly cloudy.No wind94%30.18 "HgN/A
5:20 pm61 °FPartly cloudy.No wind88%30.18 "HgN/A
4:50 pm61 °FBroken clouds.No wind88%30.18 "HgN/A
4:20 pm63 °FBroken clouds.5 mph83%30.18 "HgN/A
3:50 pm63 °FBroken clouds.5 mph83%30.18 "HgN/A
3:20 pm61 °FBroken clouds.7 mph88%30.18 "HgN/A
2:50 pm61 °FThunderstorms. Broken clouds.6 mph88%30.18 "HgN/A
2:20 pm63 °FBroken clouds.8 mph77%30.18 "HgN/A
1:50 pm63 °FBroken clouds.8 mph77%30.18 "HgN/A
1:20 pm64 °FScattered clouds.7 mph73%30.18 "HgN/A
12:50 pm64 °FScattered clouds.6 mph68%30.21 "HgN/A
12:20 pm64 °FScattered clouds.6 mph68%30.21 "HgN/A
11:50 am63 °FPassing clouds.6 mph73%30.21 "HgN/A
11:20 am63 °FPassing clouds.5 mph73%30.21 "HgN/A
10:50 am63 °FPassing clouds.No wind73%30.21 "HgN/A
9:50 am57 °FPassing clouds.No wind77%30.21 "HgN/A
9:20 am54 °FPassing clouds.No wind82%30.21 "HgN/A
8:50 am54 °FPassing clouds.No wind82%30.21 "HgN/A
8:20 am54 °FPartly sunny.No wind88%30.18 "HgN/A
7:50 am54 °FPassing clouds.No wind88%30.18 "HgN/A
7:20 am54 °FPartly sunny.No wind88%30.18 "HgN/A
6:50 am54 °FPassing clouds.No wind88%30.18 "HgN/A
6:20 am54 °FPassing clouds.No wind88%30.18 "HgN/A
5:50 am54 °FPassing clouds.No wind88%30.18 "HgN/A
5:20 am54 °FPassing clouds.No wind88%30.18 "HgN/A
4:50 am54 °FPassing clouds.5 mph88%30.18 "HgN/A
4:20 am55 °FPassing clouds.No wind82%30.18 "HgN/A
3:50 am55 °FPassing clouds.No wind82%30.18 "HgN/A
3:20 am57 °FPassing clouds.5 mph82%30.18 "HgN/A
2:50 am57 °FPassing clouds.5 mph82%30.18 "HgN/A
2:20 am57 °FPassing clouds.6 mph82%30.18 "HgN/A
Weather by CustomWeather, © 2016

See weather overviewHow to use our weather pages